owner,sensor,date,latitude,longitude,vertical_datum,wind_speed,wind_to_direction,wind_speed_of_gust,qcFlag 
DISL,ioos:station:DISL:MBLA:1,2009-01-01T00:00:00Z,30.4367,-88.0117,14.2,10.5,356.0,99.0,'11111222,11111222,11144222' 
DISL,ioos:station:DISL:MBLA:1,2009-01-01T00:30:00Z,30.4367,-88.0117,14.2,10.1,356.0,99.0,'11111222,11111222,11144222' 
DISL,ioos:station:DISL:MBLA:1,2009-01-01T01:00:00Z,30.4367,-88.0117,14.2,8.0,5.0,99.0,'11111222,11111222,11144222' 
DISL,ioos:station:DISL:MBLA:1,2009-01-01T01:30:00Z,30.4367,-88.0117,14.2,9.2,14.0,99.0,'11111222,11111222,11144222' 
DISL,ioos:station:DISL:MBLA:1,2009-01-01T02:00:00Z,30.4367,-88.0117,14.2,11.5,18.0,99.0,'11111222,11111222,11144222' 
DISL,ioos:station:DISL:MBLA:1,2009-01-01T02:30:00Z,30.4367,-88.0117,14.2,12.8,15.0,99.0,'11111222,11111222,11144222' 
DISL,ioos:station:DISL:MBLA:1,2009-01-01T03:00:00Z,30.4367,-88.0117,14.2,13.6,15.0,99.0,'11111222,11111222,11144222' 
DISL,ioos:station:DISL:MBLA:1,2009-01-01T03:30:00Z,30.4367,-88.0117,14.2,12.9,14.0,99.0,'11111222,11111222,11144222' 
DISL,ioos:station:DISL:MBLA:1,2009-01-01T04:00:00Z,30.4367,-88.0117,14.2,12.9,23.0,99.0,'11111222,11111222,11144222' 
DISL,ioos:station:DISL:MBLA:1,2009-01-01T04:30:00Z,30.4367,-88.0117,14.2,12.7,25.0,99.0,'11111222,11111222,11144222' 
DISL,ioos:station:DISL:MBLA:1,2009-01-01T05:00:00Z,30.4367,-88.0117,14.2,13.1,28.0,99.0,'11111222,11111222,11144222' 
DISL,ioos:station:DISL:MBLA:1,2009-01-01T06:30:00Z,30.4367,-88.0117,14.2,11.63,29.54,-9999.0,'1111122,1111122,1111122' 
DISL,ioos:station:DISL:MBLA:1,2009-01-01T07:00:00Z,30.4367,-88.0117,14.2,11.46,30.28,-9999.0,'1111122,1111122,1111122' 
DISL,ioos:station:DISL:MBLA:1,2009-01-01T07:30:00Z,30.4367,-88.0117,14.2,11.35,28.4,-9999.0,'1111122,1111122,1111122' 
DISL,ioos:station:DISL:MBLA:1,2009-01-01T08:00:00Z,30.4367,-88.0117,14.2,10.53,36.3,-9999.0,'1111122,1111122,1111122' 
DISL,ioos:station:DISL:MBLA:1,2009-01-01T08:30:00Z,30.4367,-88.0117,14.2,10.98,39.88,-9999.0,'1111122,1111122,1111122' 
DISL,ioos:station:DISL:MBLA:1,2009-01-01T09:00:00Z,30.4367,-88.0117,14.2,10.01,36.38,-9999.0,'1111122,1111122,1111122' 
DISL,ioos:station:DISL:MBLA:1,2009-01-01T09:30:00Z,30.4367,-88.0117,14.2,9.21,48.32,-9999.0,'1111122,1111122,1111122' 
DISL,ioos:station:DISL:MBLA:1,2009-01-01T10:00:00Z,30.4367,-88.0117,14.2,9.8,43.08,-9999.0,'1111122,1111122,1111122' 
DISL,ioos:station:DISL:MBLA:1,2009-01-01T10:30:00Z,30.4367,-88.0117,14.2,8.03,49.86,-9999.0,'1111122,1111122,1111122' 
DISL,ioos:station:DISL:MBLA:1,2009-01-01T11:00:00Z,30.4367,-88.0117,14.2,8.32,56.45,-9999.0,'1111122,1111122,1111122' 
DISL,ioos:station:DISL:MBLA:1,2009-01-01T11:30:00Z,30.4367,-88.0117,14.2,7.23,80.0,-9999.0,'1111122,1111122,1111122' 
DISL,ioos:station:DISL:MBLA:1,2009-01-01T12:00:00Z,30.4367,-88.0117,14.2,6.86,79.6,-9999.0,'1111122,1111122,1111122' 
DISL,ioos:station:DISL:MBLA:1,2009-01-01T12:30:00Z,30.4367,-88.0117,14.2,7.53,81.6,-9999.0,'1111122,1111122,1111122' 
DISL,ioos:station:DISL:MBLA:1,2009-01-01T13:00:00Z,30.4367,-88.0117,14.2,8.84,77.3,-9999.0,'1111122,1111122,1111122' 
DISL,ioos:station:DISL:MBLA:1,2009-01-01T13:30:00Z,30.4367,-88.0117,14.2,8.29,70.6,-9999.0,'1111122,1111122,1111122' 
DISL,ioos:station:DISL:MBLA:1,2009-01-01T14:00:00Z,30.4367,-88.0117,14.2,8.31,68.85,-9999.0,'1111122,1111122,1111122' 
DISL,ioos:station:DISL:MBLA:1,2009-01-01T14:30:00Z,30.4367,-88.0117,14.2,7.58,76.2,-9999.0,'1111122,1111122,1111122' 
DISL,ioos:station:DISL:MBLA:1,2009-01-01T15:00:00Z,30.4367,-88.0117,14.2,6.51,76.1,-9999.0,'1111122,1111122,1111122' 
DISL,ioos:station:DISL:MBLA:1,2009-01-01T15:30:00Z,30.4367,-88.0117,14.2,6.18,71.9,-9999.0,'1111122,1111122,1111122' 
DISL,ioos:station:DISL:MBLA:1,2009-01-01T16:00:00Z,30.4367,-88.0117,14.2,6.37,59.04,-9999.0,'1111122,1111122,1111122' 
DISL,ioos:station:DISL:MBLA:1,2009-01-01T16:30:00Z,30.4367,-88.0117,14.2,6.16,74.8,-9999.0,'1111122,1111122,1111122' 
DISL,ioos:station:DISL:MBLA:1,2009-01-01T17:00:00Z,30.4367,-88.0117,14.2,5.7,74.4,-9999.0,'1111122,1111122,1111122' 
DISL,ioos:station:DISL:MBLA:1,2009-01-01T17:30:00Z,30.4367,-88.0117,14.2,3.99,75.7,-9999.0,'1111122,1111122,1111122' 
DISL,ioos:station:DISL:MBLA:1,2009-01-01T18:00:00Z,30.4367,-88.0117,14.2,2.26,76.9,-9999.0,'1111122,1111122,1111122' 
DISL,ioos:station:DISL:MBLA:1,2009-01-01T18:30:00Z,30.4367,-88.0117,14.2,4.59,110.8,-9999.0,'1111122,1111122,1111122' 
DISL,ioos:station:DISL:MBLA:1,2009-01-01T19:00:00Z,30.4367,-88.0117,14.2,7.16,119.9,-9999.0,'1111122,1111122,1111122' 
DISL,ioos:station:DISL:MBLA:1,2009-01-01T19:30:00Z,30.4367,-88.0117,14.2,7.33,124.0,-9999.0,'1111122,1111122,1111122' 
DISL,ioos:station:DISL:MBLA:1,2009-01-01T20:00:00Z,30.4367,-88.0117,14.2,7.09,123.0,-9999.0,'1111122,1111122,1111122' 
DISL,ioos:station:DISL:MBLA:1,2009-01-01T20:30:00Z,30.4367,-88.0117,14.2,6.56,126.9,-9999.0,'1111122,1111122,1111122' 
DISL,ioos:station:DISL:MBLA:1,2009-01-01T21:00:00Z,30.4367,-88.0117,14.2,6.5,116.9,-9999.0,'1111122,1111122,1111122' 
DISL,ioos:station:DISL:MBLA:1,2009-01-01T21:30:00Z,30.4367,-88.0117,14.2,6.23,112.6,-9999.0,'1111122,1111122,1111122' 
DISL,ioos:station:DISL:MBLA:1,2009-01-01T22:00:00Z,30.4367,-88.0117,14.2,5.59,106.5,-9999.0,'1111122,1111122,1111122' 
DISL,ioos:station:DISL:MBLA:1,2009-01-01T22:30:00Z,30.4367,-88.0117,14.2,5.87,103.4,-9999.0,'1111122,1111122,1111122' 
DISL,ioos:station:DISL:MBLA:1,2009-01-01T23:00:00Z,30.4367,-88.0117,14.2,6.6,105.5,-9999.0,'1111122,1111122,1111122' 
DISL,ioos:station:DISL:MBLA:1,2009-01-01T23:30:00Z,30.4367,-88.0117,14.2,8.17,90.3,-9999.0,'1111122,1111122,1111122' 
DISL,ioos:station:DISL:MBLA:1,2009-01-02T00:00:00Z,30.4367,-88.0117,14.2,8.25,94.2,-9999.0,'1111122,1111122,1111122' 
DISL,ioos:station:DISL:MBLA:1,2009-01-02T00:30:00Z,30.4367,-88.0117,14.2,7.5,91.4,-9999.0,'1111122,1111122,1111122' 
DISL,ioos:station:DISL:MBLA:1,2009-01-02T01:00:00Z,30.4367,-88.0117,14.2,7.57,81.3,-9999.0,'1111122,1111122,1111122' 
DISL,ioos:station:DISL:MBLA:1,2009-01-02T01:30:00Z,30.4367,-88.0117,14.2,7.95,86.1,-9999.0,'1111122,1111122,1111122' 
DISL,ioos:station:DISL:MBLA:1,2009-01-02T02:00:00Z,30.4367,-88.0117,14.2,7.6,94.1,-9999.0,'1111122,1111122,1111122' 
DISL,ioos:station:DISL:MBLA:1,2009-01-02T02:30:00Z,30.4367,-88.0117,14.2,7.24,96.4,-9999.0,'1111122,1111122,1111122' 
DISL,ioos:station:DISL:MBLA:1,2009-01-02T03:00:00Z,30.4367,-88.0117,14.2,6.76,97.1,-9999.0,'1111122,1111122,1111122' 
DISL,ioos:station:DISL:MBLA:1,2009-01-02T03:30:00Z,30.4367,-88.0117,14.2,7.03,103.4,-9999.0,'1111122,1111122,1111122' 
DISL,ioos:station:DISL:MBLA:1,2009-01-02T04:00:00Z,30.4367,-88.0117,14.2,6.13,100.5,-9999.0,'1111122,1111122,1111122' 
DISL,ioos:station:DISL:MBLA:1,2009-01-02T04:30:00Z,30.4367,-88.0117,14.2,5.11,95.7,-9999.0,'1111122,1111122,1111122' 
DISL,ioos:station:DISL:MBLA:1,2009-01-02T05:00:00Z,30.4367,-88.0117,14.2,4.32,87.4,-9999.0,'1111122,1111122,1111122' 
DISL,ioos:station:DISL:MBLA:1,2009-01-02T05:30:00Z,30.4367,-88.0117,14.2,5.66,112.6,-9999.0,'1111122,1111122,1111122' 
DISL,ioos:station:DISL:MBLA:1,2009-01-02T06:00:00Z,30.4367,-88.0117,14.2,4.49,106.0,-9999.0,'1111122,1111122,1111122' 
DISL,ioos:station:DISL:MBLA:1,2009-01-02T06:30:00Z,30.4367,-88.0117,14.2,4.19,98.2,-9999.0,'1111122,1111122,1111122' 
DISL,ioos:station:DISL:MBLA:1,2009-01-02T07:00:00Z,30.4367,-88.0117,14.2,3.52,98.2,-9999.0,'1111122,1111122,1111122' 
DISL,ioos:station:DISL:MBLA:1,2009-01-02T07:30:00Z,30.4367,-88.0117,14.2,2.97,69.05,-9999.0,'1111122,1111122,1111122' 
DISL,ioos:station:DISL:MBLA:1,2009-01-02T08:00:00Z,30.4367,-88.0117,14.2,3.82,52.78,-9999.0,'1111122,1111122,1111122' 
DISL,ioos:station:DISL:MBLA:1,2009-01-02T08:30:00Z,30.4367,-88.0117,14.2,4.3,43.53,-9999.0,'1111122,1111122,1111122' 
DISL,ioos:station:DISL:MBLA:1,2009-01-02T09:00:00Z,30.4367,-88.0117,14.2,4.6,65.78,-9999.0,'1111122,1111122,1111122' 
DISL,ioos:station:DISL:MBLA:1,2009-01-02T09:30:00Z,30.4367,-88.0117,14.2,5.29,88.1,-9999.0,'1111122,1111122,1111122' 
DISL,ioos:station:DISL:MBLA:1,2009-01-02T10:00:00Z,30.4367,-88.0117,14.2,5.8,99.3,-9999.0,'1111122,1111122,1111122' 
DISL,ioos:station:DISL:MBLA:1,2009-01-02T10:30:00Z,30.4367,-88.0117,14.2,6.1,99.7,-9999.0,'1111122,1111122,1111122' 
DISL,ioos:station:DISL:MBLA:1,2009-01-02T11:00:00Z,30.4367,-88.0117,14.2,4.83,64.08,-9999.0,'1111122,1111122,1111122' 
DISL,ioos:station:DISL:MBLA:1,2009-01-02T11:30:00Z,30.4367,-88.0117,14.2,5.82,85.3,-9999.0,'1111122,1111122,1111122' 
DISL,ioos:station:DISL:MBLA:1,2009-01-02T12:00:00Z,30.4367,-88.0117,14.2,5.1,93.1,-9999.0,'1111122,1111122,1111122' 
DISL,ioos:station:DISL:MBLA:1,2009-01-02T12:30:00Z,30.4367,-88.0117,14.2,6.1,110.1,-9999.0,'1111122,1111122,1111122' 
DISL,ioos:station:DISL:MBLA:1,2009-01-02T13:00:00Z,30.4367,-88.0117,14.2,5.44,105.4,-9999.0,'1111122,1111122,1111122' 
DISL,ioos:station:DISL:MBLA:1,2009-01-02T13:30:00Z,30.4367,-88.0117,14.2,5.87,100.9,-9999.0,'1111122,1111122,1111122' 
DISL,ioos:station:DISL:MBLA:1,2009-01-02T14:00:00Z,30.4367,-88.0117,14.2,4.82,107.1,-9999.0,'1111122,1111122,1111122' 
DISL,ioos:station:DISL:MBLA:1,2009-01-02T14:30:00Z,30.4367,-88.0117,14.2,5.77,104.3,-9999.0,'1111122,1111122,1111122' 
DISL,ioos:station:DISL:MBLA:1,2009-01-02T15:00:00Z,30.4367,-88.0117,14.2,5.54,118.1,-9999.0,'1111122,1111122,1111122' 
DISL,ioos:station:DISL:MBLA:1,2009-01-02T15:30:00Z,30.4367,-88.0117,14.2,5.39,127.1,-9999.0,'1111122,1111122,1111122' 
DISL,ioos:station:DISL:MBLA:1,2009-01-02T16:00:00Z,30.4367,-88.0117,14.2,5.4,124.7,-9999.0,'1111122,1111122,1111122' 
DISL,ioos:station:DISL:MBLA:1,2009-01-02T16:30:00Z,30.4367,-88.0117,14.2,4.08,141.1,-9999.0,'1111122,1111122,1111122' 
DISL,ioos:station:DISL:MBLA:1,2009-01-02T17:00:00Z,30.4367,-88.0117,14.2,4.56,155.8,-9999.0,'1111122,1111122,1111122' 
DISL,ioos:station:DISL:MBLA:1,2009-01-02T17:30:00Z,30.4367,-88.0117,14.2,2.85,183.8,-9999.0,'1111122,1111122,1111122' 
DISL,ioos:station:DISL:MBLA:1,2009-01-02T18:00:00Z,30.4367,-88.0117,14.2,3.15,180.6,-9999.0,'1111122,1111122,1111122' 
DISL,ioos:station:DISL:MBLA:1,2009-01-02T18:30:00Z,30.4367,-88.0117,14.2,6.13,174.2,-9999.0,'1111122,1111122,1111122' 
DISL,ioos:station:DISL:MBLA:1,2009-01-02T19:00:00Z,30.4367,-88.0117,14.2,5.84,177.9,-9999.0,'1111122,1111122,1111122' 
DISL,ioos:station:DISL:MBLA:1,2009-01-02T19:30:00Z,30.4367,-88.0117,14.2,4.83,181.1,-9999.0,'1111122,1111122,1111122' 
DISL,ioos:station:DISL:MBLA:1,2009-01-02T20:00:00Z,30.4367,-88.0117,14.2,5.31,188.3,-9999.0,'1111122,1111122,1111122' 
DISL,ioos:station:DISL:MBLA:1,2009-01-02T20:30:00Z,30.4367,-88.0117,14.2,4.37,189.8,-9999.0,'1111122,1111122,1111122' 
DISL,ioos:station:DISL:MBLA:1,2009-01-02T21:00:00Z,30.4367,-88.0117,14.2,4.33,189.6,-9999.0,'1111122,1111122,1111122' 
DISL,ioos:station:DISL:MBLA:1,2009-01-02T21:30:00Z,30.4367,-88.0117,14.2,5.04,179.8,-9999.0,'1111122,1111122,1111122' 
DISL,ioos:station:DISL:MBLA:1,2009-01-02T22:00:00Z,30.4367,-88.0117,14.2,6.02,180.5,-9999.0,'1111122,1111122,1111122' 
DISL,ioos:station:DISL:MBLA:1,2009-01-02T22:30:00Z,30.4367,-88.0117,14.2,5.98,179.6,-9999.0,'1111122,1111122,1111122' 
DISL,ioos:station:DISL:MBLA:1,2009-01-02T23:00:00Z,30.4367,-88.0117,14.2,4.2,186.2,-9999.0,'1111122,1111122,1111122' 
DISL,ioos:station:DISL:MBLA:1,2009-01-02T23:30:00Z,30.4367,-88.0117,14.2,2.26,203.5,-9999.0,'1111122,1111122,1111122' 
DISL,ioos:station:DISL:MBLA:1,2009-01-03T00:00:00Z,30.4367,-88.0117,14.2,0.0,0.0,-9999.0,'1114422,1114422,1111122' 
DISL,ioos:station:DISL:MBLA:1,2009-01-03T00:30:00Z,30.4367,-88.0117,14.2,2.98,133.8,-9999.0,'1111122,1111122,1111122' 
DISL,ioos:station:DISL:MBLA:1,2009-01-03T01:00:00Z,30.4367,-88.0117,14.2,2.79,149.1,-9999.0,'1111122,1111122,1111122' 
DISL,ioos:station:DISL:MBLA:1,2009-01-03T01:30:00Z,30.4367,-88.0117,14.2,3.53,165.0,-9999.0,'1111122,1111122,1111122' 
DISL,ioos:station:DISL:MBLA:1,2009-01-03T02:00:00Z,30.4367,-88.0117,14.2,4.04,160.0,-9999.0,'1111122,1111122,1111122' 
DISL,ioos:station:DISL:MBLA:1,2009-01-03T02:30:00Z,30.4367,-88.0117,14.2,4.21,176.7,-9999.0,'1111122,1111122,1111122' 
DISL,ioos:station:DISL:MBLA:1,2009-01-03T03:00:00Z,30.4367,-88.0117,14.2,3.61,193.6,-9999.0,'1111122,1111122,1111122' 
DISL,ioos:station:DISL:MBLA:1,2009-01-03T03:30:00Z,30.4367,-88.0117,14.2,3.96,200.3,-9999.0,'1111122,1111122,1111122' 
DISL,ioos:station:DISL:MBLA:1,2009-01-03T04:00:00Z,30.4367,-88.0117,14.2,4.64,183.5,-9999.0,'1111122,1111122,1111122' 
DISL,ioos:station:DISL:MBLA:1,2009-01-03T04:30:00Z,30.4367,-88.0117,14.2,4.96,193.3,-9999.0,'1111122,1111122,1111122' 
DISL,ioos:station:DISL:MBLA:1,2009-01-03T05:00:00Z,30.4367,-88.0117,14.2,5.53,200.7,-9999.0,'1111122,1111122,1111122' 
DISL,ioos:station:DISL:MBLA:1,2009-01-03T05:30:00Z,30.4367,-88.0117,14.2,5.51,173.1,-9999.0,'1111122,1111122,1111122' 
DISL,ioos:station:DISL:MBLA:1,2009-01-03T06:00:00Z,30.4367,-88.0117,14.2,4.56,179.7,-9999.0,'1111122,1111122,1111122' 
DISL,ioos:station:DISL:MBLA:1,2009-01-03T06:30:00Z,30.4367,-88.0117,14.2,4.58,189.2,-9999.0,'1111122,1111122,1111122' 
DISL,ioos:station:DISL:MBLA:1,2009-01-03T07:00:00Z,30.4367,-88.0117,14.2,3.53,157.1,-9999.0,'1111122,1111122,1111122' 
DISL,ioos:station:DISL:MBLA:1,2009-01-03T07:30:00Z,30.4367,-88.0117,14.2,2.21,191.2,-9999.0,'1111122,1111122,1111122' 
DISL,ioos:station:DISL:MBLA:1,2009-01-03T08:00:00Z,30.4367,-88.0117,14.2,2.55,159.4,-9999.0,'1111122,1111122,1111122' 
DISL,ioos:station:DISL:MBLA:1,2009-01-03T08:30:00Z,30.4367,-88.0117,14.2,2.68,143.5,-9999.0,'1111122,1111122,1111122' 
DISL,ioos:station:DISL:MBLA:1,2009-01-03T09:00:00Z,30.4367,-88.0117,14.2,2.66,149.9,-9999.0,'1111122,1111122,1111122' 
DISL,ioos:station:DISL:MBLA:1,2009-01-03T09:30:00Z,30.4367,-88.0117,14.2,1.99,126.4,-9999.0,'1111122,1111122,1111122' 
DISL,ioos:station:DISL:MBLA:1,2009-01-03T10:00:00Z,30.4367,-88.0117,14.2,3.15,142.0,-9999.0,'1111122,1111122,1111122' 
DISL,ioos:station:DISL:MBLA:1,2009-01-03T10:30:00Z,30.4367,-88.0117,14.2,4.24,130.2,-9999.0,'1111122,1111122,1111122' 
DISL,ioos:station:DISL:MBLA:1,2009-01-03T11:00:00Z,30.4367,-88.0117,14.2,4.13,124.0,-9999.0,'1111122,1111122,1111122' 
DISL,ioos:station:DISL:MBLA:1,2009-01-03T11:30:00Z,30.4367,-88.0117,14.2,4.89,123.5,-9999.0,'1111122,1111122,1111122' 
DISL,ioos:station:DISL:MBLA:1,2009-01-03T12:00:00Z,30.4367,-88.0117,14.2,4.31,126.5,-9999.0,'1111122,1111122,1111122' 
DISL,ioos:station:DISL:MBLA:1,2009-01-03T12:30:00Z,30.4367,-88.0117,14.2,4.82,117.4,-9999.0,'1111122,1111122,1111122' 
DISL,ioos:station:DISL:MBLA:1,2009-01-03T13:00:00Z,30.4367,-88.0117,14.2,4.62,118.8,-9999.0,'1111122,1111122,1111122' 
DISL,ioos:station:DISL:MBLA:1,2009-01-03T13:30:00Z,30.4367,-88.0117,14.2,4.59,108.8,-9999.0,'1111122,1111122,1111122' 
DISL,ioos:station:DISL:MBLA:1,2009-01-03T14:00:00Z,30.4367,-88.0117,14.2,3.42,114.5,-9999.0,'1111122,1111122,1111122' 
DISL,ioos:station:DISL:MBLA:1,2009-01-03T14:30:00Z,30.4367,-88.0117,14.2,5.03,126.3,-9999.0,'1111122,1111122,1111122' 
DISL,ioos:station:DISL:MBLA:1,2009-01-03T15:00:00Z,30.4367,-88.0117,14.2,5.42,121.6,-9999.0,'1111122,1111122,1111122' 
DISL,ioos:station:DISL:MBLA:1,2009-01-03T15:30:00Z,30.4367,-88.0117,14.2,5.31,124.1,-9999.0,'1111122,1111122,1111122' 
DISL,ioos:station:DISL:MBLA:1,2009-01-03T16:00:00Z,30.4367,-88.0117,14.2,5.72,129.1,-9999.0,'1111122,1111122,1111122' 
DISL,ioos:station:DISL:MBLA:1,2009-01-03T16:30:00Z,30.4367,-88.0117,14.2,5.53,130.2,-9999.0,'1111122,1111122,1111122' 
DISL,ioos:station:DISL:MBLA:1,2009-01-03T17:00:00Z,30.4367,-88.0117,14.2,4.5,138.7,-9999.0,'1111122,1111122,1111122' 
DISL,ioos:station:DISL:MBLA:1,2009-01-03T17:30:00Z,30.4367,-88.0117,14.2,4.63,139.2,-9999.0,'1111122,1111122,1111122' 
DISL,ioos:station:DISL:MBLA:1,2009-01-03T18:00:00Z,30.4367,-88.0117,14.2,7.09,151.5,-9999.0,'1111122,1111122,1111122' 
DISL,ioos:station:DISL:MBLA:1,2009-01-03T18:30:00Z,30.4367,-88.0117,14.2,7.16,154.8,-9999.0,'1111122,1111122,1111122' 
DISL,ioos:station:DISL:MBLA:1,2009-01-03T19:00:00Z,30.4367,-88.0117,14.2,7.19,155.2,-9999.0,'1111122,1111122,1111122' 
DISL,ioos:station:DISL:MBLA:1,2009-01-03T19:30:00Z,30.4367,-88.0117,14.2,6.62,153.4,-9999.0,'1111122,1111122,1111122' 
DISL,ioos:station:DISL:MBLA:1,2009-01-03T20:00:00Z,30.4367,-88.0117,14.2,5.68,150.9,-9999.0,'1111122,1111122,1111122' 
DISL,ioos:station:DISL:MBLA:1,2009-01-03T20:30:00Z,30.4367,-88.0117,14.2,5.89,150.3,-9999.0,'1111122,1111122,1111122' 
DISL,ioos:station:DISL:MBLA:1,2009-01-03T21:00:00Z,30.4367,-88.0117,14.2,6.06,156.9,-9999.0,'1111122,1111122,1111122' 
DISL,ioos:station:DISL:MBLA:1,2009-01-03T21:30:00Z,30.4367,-88.0117,14.2,4.43,142.5,-9999.0,'1111122,1111122,1111122' 
DISL,ioos:station:DISL:MBLA:1,2009-01-03T22:00:00Z,30.4367,-88.0117,14.2,6.32,156.9,-9999.0,'1111122,1111122,1111122' 
DISL,ioos:station:DISL:MBLA:1,2009-01-03T22:30:00Z,30.4367,-88.0117,14.2,4.76,164.1,-9999.0,'1111122,1111122,1111122' 
DISL,ioos:station:DISL:MBLA:1,2009-01-03T23:00:00Z,30.4367,-88.0117,14.2,5.78,165.9,-9999.0,'1111122,1111122,1111122' 
DISL,ioos:station:DISL:MBLA:1,2009-01-03T23:30:00Z,30.4367,-88.0117,14.2,4.79,152.5,-9999.0,'1111122,1111122,1111122' 
DISL,ioos:station:DISL:MBLA:1,2009-01-04T00:00:00Z,30.4367,-88.0117,14.2,5.76,213.0,-9999.0,'1111122,1111122,1111122' 
DISL,ioos:station:DISL:MBLA:1,2009-01-04T00:30:00Z,30.4367,-88.0117,14.2,4.43,66.91,-9999.0,'1111122,1111122,1111122' 
DISL,ioos:station:DISL:MBLA:1,2009-01-04T01:00:00Z,30.4367,-88.0117,14.2,0.7,111.8,-9999.0,'1111122,1111122,1111122' 
DISL,ioos:station:DISL:MBLA:1,2009-01-04T01:30:00Z,30.4367,-88.0117,14.2,4.03,146.7,-9999.0,'1111122,1111122,1111122' 
DISL,ioos:station:DISL:MBLA:1,2009-01-04T02:00:00Z,30.4367,-88.0117,14.2,2.46,62.99,-9999.0,'1111122,1111122,1111122' 
DISL,ioos:station:DISL:MBLA:1,2009-01-04T02:30:00Z,30.4367,-88.0117,14.2,3.89,103.4,-9999.0,'1111122,1111122,1111122' 
DISL,ioos:station:DISL:MBLA:1,2009-01-04T03:00:00Z,30.4367,-88.0117,14.2,5.17,94.5,-9999.0,'1111122,1111122,1111122' 
DISL,ioos:station:DISL:MBLA:1,2009-01-04T03:30:00Z,30.4367,-88.0117,14.2,3.58,115.7,-9999.0,'1111122,1111122,1111122' 
DISL,ioos:station:DISL:MBLA:1,2009-01-04T04:00:00Z,30.4367,-88.0117,14.2,5.18,154.1,-9999.0,'1111122,1111122,1111122' 
DISL,ioos:station:DISL:MBLA:1,2009-01-04T04:30:00Z,30.4367,-88.0117,14.2,9.51,158.5,-9999.0,'1111122,1111122,1111122' 
DISL,ioos:station:DISL:MBLA:1,2009-01-04T05:00:00Z,30.4367,-88.0117,14.2,9.42,145.5,-9999.0,'1111122,1111122,1111122' 
DISL,ioos:station:DISL:MBLA:1,2009-01-04T05:30:00Z,30.4367,-88.0117,14.2,4.95,170.3,-9999.0,'1111122,1111122,1111122' 
DISL,ioos:station:DISL:MBLA:1,2009-01-04T06:00:00Z,30.4367,-88.0117,14.2,7.76,206.2,-9999.0,'1111122,1111122,1111122' 
DISL,ioos:station:DISL:MBLA:1,2009-01-04T06:30:00Z,30.4367,-88.0117,14.2,6.61,183.6,-9999.0,'1111122,1111122,1111122' 
DISL,ioos:station:DISL:MBLA:1,2009-01-04T07:00:00Z,30.4367,-88.0117,14.2,10.56,161.5,-9999.0,'1111122,1111122,1111122' 
DISL,ioos:station:DISL:MBLA:1,2009-01-04T07:30:00Z,30.4367,-88.0117,14.2,11.66,158.9,-9999.0,'1111122,1111122,1111122' 
DISL,ioos:station:DISL:MBLA:1,2009-01-04T08:00:00Z,30.4367,-88.0117,14.2,6.51,167.4,-9999.0,'1111122,1111122,1111122' 
DISL,ioos:station:DISL:MBLA:1,2009-01-04T08:30:00Z,30.4367,-88.0117,14.2,4.83,169.5,-9999.0,'1111122,1111122,1111122' 
DISL,ioos:station:DISL:MBLA:1,2009-01-04T09:00:00Z,30.4367,-88.0117,14.2,3.89,173.6,-9999.0,'1111122,1111122,1111122' 
DISL,ioos:station:DISL:MBLA:1,2009-01-04T09:30:00Z,30.4367,-88.0117,14.2,3.38,149.4,-9999.0,'1111122,1111122,1111122' 
DISL,ioos:station:DISL:MBLA:1,2009-01-04T10:00:00Z,30.4367,-88.0117,14.2,3.39,144.8,-9999.0,'1111122,1111122,1111122' 
DISL,ioos:station:DISL:MBLA:1,2009-01-04T10:30:00Z,30.4367,-88.0117,14.2,6.26,131.3,-9999.0,'1111122,1111122,1111122' 
DISL,ioos:station:DISL:MBLA:1,2009-01-04T11:00:00Z,30.4367,-88.0117,14.2,4.53,136.2,-9999.0,'1111122,1111122,1111122' 
DISL,ioos:station:DISL:MBLA:1,2009-01-04T11:30:00Z,30.4367,-88.0117,14.2,2.95,143.8,-9999.0,'1111122,1111122,1111122' 
DISL,ioos:station:DISL:MBLA:1,2009-01-04T12:00:00Z,30.4367,-88.0117,14.2,2.54,118.7,-9999.0,'1111122,1111122,1111122' 
DISL,ioos:station:DISL:MBLA:1,2009-01-04T12:30:00Z,30.4367,-88.0117,14.2,2.28,107.8,-9999.0,'1111122,1111122,1111122' 
DISL,ioos:station:DISL:MBLA:1,2009-01-04T13:00:00Z,30.4367,-88.0117,14.2,1.2,32.67,-9999.0,'1111122,1111122,1111122' 
DISL,ioos:station:DISL:MBLA:1,2009-01-04T13:30:00Z,30.4367,-88.0117,14.2,2.07,100.5,-9999.0,'1111122,1111122,1111122' 
DISL,ioos:station:DISL:MBLA:1,2009-01-04T14:00:00Z,30.4367,-88.0117,14.2,2.09,106.2,-9999.0,'1111122,1111122,1111122' 
DISL,ioos:station:DISL:MBLA:1,2009-01-04T14:30:00Z,30.4367,-88.0117,14.2,1.16,131.0,-9999.0,'1111122,1111122,1111122' 
DISL,ioos:station:DISL:MBLA:1,2009-01-04T15:00:00Z,30.4367,-88.0117,14.2,1.8,142.7,-9999.0,'1111122,1111122,1111122' 
DISL,ioos:station:DISL:MBLA:1,2009-01-04T15:30:00Z,30.4367,-88.0117,14.2,2.73,132.4,-9999.0,'1111122,1111122,1111122' 
DISL,ioos:station:DISL:MBLA:1,2009-01-04T16:00:00Z,30.4367,-88.0117,14.2,3.3,122.6,-9999.0,'1111122,1111122,1111122' 
DISL,ioos:station:DISL:MBLA:1,2009-01-04T16:30:00Z,30.4367,-88.0117,14.2,4.66,146.6,-9999.0,'1111122,1111122,1111122' 
DISL,ioos:station:DISL:MBLA:1,2009-01-04T17:00:00Z,30.4367,-88.0117,14.2,3.25,145.0,-9999.0,'1111122,1111122,1111122' 
DISL,ioos:station:DISL:MBLA:1,2009-01-04T17:30:00Z,30.4367,-88.0117,14.2,5.08,136.8,-9999.0,'1111122,1111122,1111122' 
DISL,ioos:station:DISL:MBLA:1,2009-01-04T18:00:00Z,30.4367,-88.0117,14.2,4.8,138.6,-9999.0,'1111122,1111122,1111122' 
DISL,ioos:station:DISL:MBLA:1,2009-01-04T18:30:00Z,30.4367,-88.0117,14.2,3.63,138.1,-9999.0,'1111122,1111122,1111122' 
DISL,ioos:station:DISL:MBLA:1,2009-01-04T19:00:00Z,30.4367,-88.0117,14.2,4.13,126.7,-9999.0,'1111122,1111122,1111122' 
DISL,ioos:station:DISL:MBLA:1,2009-01-04T19:30:00Z,30.4367,-88.0117,14.2,3.9,119.0,-9999.0,'1111122,1111122,1111122' 
DISL,ioos:station:DISL:MBLA:1,2009-01-04T20:00:00Z,30.4367,-88.0117,14.2,2.55,126.6,-9999.0,'1111122,1111122,1111122' 
DISL,ioos:station:DISL:MBLA:1,2009-01-04T20:30:00Z,30.4367,-88.0117,14.2,3.51,114.4,-9999.0,'1111122,1111122,1111122' 
DISL,ioos:station:DISL:MBLA:1,2009-01-04T21:00:00Z,30.4367,-88.0117,14.2,3.52,119.4,-9999.0,'1111122,1111122,1111122' 
DISL,ioos:station:DISL:MBLA:1,2009-01-04T21:30:00Z,30.4367,-88.0117,14.2,3.32,129.8,-9999.0,'1111122,1111122,1111122' 
DISL,ioos:station:DISL:MBLA:1,2009-01-04T22:00:00Z,30.4367,-88.0117,14.2,3.8,132.6,-9999.0,'1111122,1111122,1111122' 
DISL,ioos:station:DISL:MBLA:1,2009-01-04T22:30:00Z,30.4367,-88.0117,14.2,3.8,128.4,-9999.0,'1111122,1111122,1111122' 
DISL,ioos:station:DISL:MBLA:1,2009-01-04T23:00:00Z,30.4367,-88.0117,14.2,3.91,119.2,-9999.0,'1111122,1111122,1111122' 
DISL,ioos:station:DISL:MBLA:1,2009-01-04T23:30:00Z,30.4367,-88.0117,14.2,3.69,126.2,-9999.0,'1111122,1111122,1111122' 
DISL,ioos:station:DISL:MBLA:1,2009-01-05T00:00:00Z,30.4367,-88.0117,14.2,3.13,118.1,-9999.0,'1111122,1111122,1111122' 
DISL,ioos:station:DISL:MBLA:1,2009-01-05T00:30:00Z,30.4367,-88.0117,14.2,2.56,131.5,-9999.0,'1111122,1111122,1111122' 
DISL,ioos:station:DISL:MBLA:1,2009-01-05T01:00:00Z,30.4367,-88.0117,14.2,2.5,128.7,-9999.0,'1111122,1111122,1111122' 
DISL,ioos:station:DISL:MBLA:1,2009-01-05T01:30:00Z,30.4367,-88.0117,14.2,3.06,120.1,-9999.0,'1111122,1111122,1111122' 
DISL,ioos:station:DISL:MBLA:1,2009-01-05T02:00:00Z,30.4367,-88.0117,14.2,3.0,132.8,-9999.0,'1111122,1111122,1111122' 
DISL,ioos:station:DISL:MBLA:1,2009-01-05T02:30:00Z,30.4367,-88.0117,14.2,3.5,121.8,-9999.0,'1111122,1111122,1111122' 
DISL,ioos:station:DISL:MBLA:1,2009-01-05T03:00:00Z,30.4367,-88.0117,14.2,3.46,131.6,-9999.0,'1111122,1111122,1111122' 
DISL,ioos:station:DISL:MBLA:1,2009-01-05T03:30:00Z,30.4367,-88.0117,14.2,4.03,130.4,-9999.0,'1111122,1111122,1111122' 
DISL,ioos:station:DISL:MBLA:1,2009-01-05T04:00:00Z,30.4367,-88.0117,14.2,4.56,129.0,-9999.0,'1111122,1111122,1111122' 
DISL,ioos:station:DISL:MBLA:1,2009-01-05T04:30:00Z,30.4367,-88.0117,14.2,4.34,121.8,-9999.0,'1111122,1111122,1111122' 
DISL,ioos:station:DISL:MBLA:1,2009-01-05T05:00:00Z,30.4367,-88.0117,14.2,4.23,109.0,-9999.0,'1111122,1111122,1111122' 